Starlink 31782

operational
NORAD ID: 59606 Int'l Des: 2024-080 Owner: SPXS Country: US Constellation: starlink
LEOCIRCULAR

About Starlink 31782

Description loading...

Live Position

Loading 3D Globe...

Upcoming Passes

Altitude History

Altitude vs Time

uPlot chart will show altitude changes over time

Two-Line Element Set

1 59606U 24080F 25258.22901555 .00001695 00000-0 71092-4 0 9995
2 59606 43.0025 312.6674 0001679 274.6552 85.4108 15.27581195 77650
Epoch: Sep 15, 2025 • Age: 15 hours

Current Status

Altitude 494.4 km
Velocity 7.62 km/s
Sub-Earth Point -40.79°S, 109.86°W
Launch Date Apr 28, 2024
Age 1.3 years
Type internet

Technical Details

Classification Payload
Mass 730.00 kg
Dry Mass 700.00 kg
Total Mass 730.00 kg
Length 0.30 m
Diameter 4.10 m
Span 29.00 m
Shape Box + pan
Manufacturer SPXS
Bus Type Starlink V2M
Phase Status In Orbit
Owner/State SPXS/US

Large Constellations

Loading constellations...